Home   Weather   Bradford   Past weeks

Flag for United Kingdom Past Weather in Bradford, England, United Kingdom — Yesterday and Last 2 Weeks

Now
41 °F

Fog.


Feels Like: 39 °F
Forecast: 33 / 39 °F
Wind: 3 mph from North

Location: Leeds And Bradford

Current Time: Dec 3, 2016 at 12:21:50 am

Latest Report: Dec 2, 2016 at 11:50 pm


Visibility: 1 mi

Pressure: 30.33 "Hg

Humidity: 100%

Dew Point: 41 °F

Location of BradfordLocation

Past Weather in Bradford — Graph

°F

Bradford Temperature Yesterday

Maximum temperature yesterday: 46 °F (at 10:20 am)
Minimum temperature yesterday: 39 °F (at 12:20 am)
Average temperature yesterday: 43 °F

High & Low Weather Summary for the Past Weeks

 TemperatureHumidityPressure
High48 °F (Dec 1, 11:50 am)100% (Nov 18, 12:50 am)30.54 "Hg (Nov 18, 12:50 am)
Low27 °F (Nov 29, 5:50 am)61% (Nov 26, 5:20 pm)29.06 "Hg (Nov 20, 7:20 am)
Average39 °F92%29.99 "Hg
* Reported Nov 17 11:20 pm — Dec 2 11:20 pm, Bradford, Weather by CustomWeather, © 2016

Note: Actual official high and low records may vary slightly from our data, if they occured in-between our weather recording intervals... More about our weather records

Advertising

Bradford Weather History for the Previous 24 Hours

Scroll right to see more
 ConditionsComfort  
Time TempWeatherWind HumidityBarometerVisibility
11:20 pm
Fri, Dec 2
41 °FFog.3 mph100%30.33 "Hg1 mi
10:50 pm41 °FFog.2 mph100%30.33 "Hg1 mi
10:20 pm41 °FFog.2 mph100%30.33 "Hg1 mi
9:50 pm41 °FFog.3 mph100%30.33 "Hg1 mi
9:20 pm41 °FFog.5 mph100%30.33 "Hg1 mi
8:50 pm43 °FDrizzle. Fog.5 mph100%30.33 "Hg1 mi
8:20 pm41 °FDrizzle. Fog.3 mph100%30.33 "Hg1 mi
7:50 pm43 °FDrizzle. Fog.5 mph100%30.33 "Hg1 mi
7:20 pm43 °FDrizzle. Fog.5 mph100%30.33 "Hg2 mi
6:50 pm43 °FPassing clouds.5 mph93%30.33 "Hg6 mi
6:20 pm43 °FPassing clouds.5 mph93%30.33 "HgN/A
5:50 pm43 °FPartly cloudy.3 mph93%30.30 "Hg5 mi
5:20 pm43 °FPassing clouds.3 mph93%30.30 "HgN/A
4:50 pm43 °FPassing clouds.3 mph87%30.30 "HgN/A
4:20 pm43 °FPassing clouds.2 mph87%30.30 "HgN/A
3:50 pm43 °FPassing clouds.2 mph87%30.30 "HgN/A
3:20 pm45 °FScattered clouds.2 mph87%30.30 "HgN/A
2:50 pm45 °FPartly sunny.2 mph87%30.30 "HgN/A
2:20 pm45 °FPartly sunny.5 mph87%30.30 "HgN/A
1:50 pm45 °FPartly sunny.7 mph81%30.30 "HgN/A
1:20 pm45 °FPartly sunny.7 mph81%30.30 "HgN/A
12:50 pm45 °FPartly sunny.7 mph81%30.33 "HgN/A
12:20 pm45 °FPartly sunny.5 mph81%30.33 "HgN/A
11:50 am45 °FPartly sunny.6 mph81%30.33 "HgN/A
11:20 am45 °FPartly sunny.5 mph81%30.33 "HgN/A
10:50 am45 °FScattered clouds.3 mph81%30.33 "HgN/A
10:20 am46 °FScattered clouds.5 mph76%30.33 "HgN/A
9:50 am45 °FScattered clouds.6 mph76%30.33 "HgN/A
9:20 am43 °FPartly sunny.5 mph87%30.33 "HgN/A
8:50 am43 °FPartly sunny.6 mph87%30.33 "HgN/A
8:20 am43 °FPartly sunny.7 mph87%30.33 "HgN/A
7:50 am41 °FPassing clouds.7 mph93%30.33 "HgN/A
7:20 am43 °FPassing clouds.6 mph87%30.30 "HgN/A
6:50 am41 °FPassing clouds.6 mph93%30.30 "HgN/A
6:20 am41 °FPassing clouds.7 mph93%30.30 "HgN/A
5:50 am41 °FPassing clouds.5 mph93%30.30 "HgN/A
5:20 am41 °FPassing clouds.6 mph93%30.30 "HgN/A
4:50 am43 °FPassing clouds.7 mph87%30.30 "HgN/A
4:20 am43 °FPassing clouds.8 mph87%30.30 "HgN/A
3:50 am41 °FPassing clouds.8 mph93%30.30 "HgN/A
3:20 am43 °FPassing clouds.7 mph81%30.30 "HgN/A
2:50 am43 °FPassing clouds.9 mph81%30.30 "HgN/A
2:20 am41 °FPassing clouds.9 mph87%30.30 "HgN/A
1:50 am41 °FPassing clouds.9 mph87%30.30 "HgN/A
1:20 am41 °FPassing clouds.10 mph87%30.30 "HgN/A
12:50 am41 °FPassing clouds.10 mph87%30.30 "HgN/A
12:20 am39 °FPassing clouds.9 mph87%30.33 "HgN/A
Weather by CustomWeather, © 2016

See weather overviewHow to use our weather pages